FW2402 Weather Reports


time (UTC)temp
C
wind
direction
speed
KPH
gust
KPH
rain 1hr
cm
rain 24hr
cm
rain mn
cm
humidity
%
barometer
mb
20260504004018 21 76 6.4 16.1 0.00 0.00 0.00 63 1015.5
20260504003518 21 61 6.4 16.1 0.00 0.00 0.00 63 1015.6
20260504003042 21 64 6.4 16.1 0.00 0.00 0.00 62 1015.6
20260504002516 22 34 4.8 11.3 0.00 0.00 0.00 61 1015.6
20260504002017 22 67 4.8 11.3 0.00 0.00 0.00 61 1015.4
20260504001536 22 59 4.8 12.9 0.00 0.00 0.00 61 1015.3
20260504001019 22 55 4.8 12.9 0.00 0.00 0.00 60 1015.2
20260504000517 22 22 4.8 14.5 0.00 0.00 0.00 60 1015.2
20260504000042 22 82 6.4 14.5 0.00 0.00 0.00 59 1015.1
20260503235517 23 71 4.8 9.7 0.00 0.00 0.00 58 1015.0
20260503235017 23 76 4.8 12.9 0.00 0.00 0.00 57 1014.9
20260503234535 23 35 4.8 12.9 0.00 0.00 0.00 57 1014.9
20260503234017 23 85 8.0 17.7 0.00 0.00 0.00 56 1014.9
20260503233517 23 42 6.4 17.7 0.00 0.00 0.00 56 1014.9
20260503233038 24 71 8.0 17.7 0.00 0.00 0.00 54 1014.9
20260503232516 24 63 9.7 16.1 0.00 0.00 0.00 54 1014.9
20260503232016 25 61 6.4 14.5 0.00 0.00 0.00 52 1014.8
20260503231531 25 59 6.4 17.7 0.00 0.00 0.00 52 1014.7
20260503231019 25 46 4.8 17.7 0.00 0.00 0.00 52 1014.7
20260503230517 25 46 8.0 17.7 0.00 0.00 0.00 51 1014.7
20260503230038 25 47 8.0 14.5 0.00 0.00 0.00 51 1014.7
20260503225516 25 28 8.0 14.5 0.00 0.00 0.00 51 1014.6
20260503225021 25 13 4.8 14.5 0.00 0.00 0.00 51 1014.7
20260503224536 26 74 4.8 12.9 0.00 0.00 0.00 50 1014.7
20260503224017 25 85 8.0 17.7 0.00 0.00 0.00 50 1014.7
20260503223517 26 80 9.7 17.7 0.00 0.00 0.00 48 1014.7
20260503223036 27 80 1.6 14.5 0.00 0.00 0.00 47 1014.8
20260503222516 26 84 6.4 14.5 0.00 0.00 0.00 49 1014.8
20260503222016 26 37 6.4 16.1 0.00 0.00 0.00 47 1014.8
20260503221538 26 71 4.8 16.1 0.00 0.00 0.00 50 1014.9
20260503221018 26 86 9.7 16.1 0.00 0.00 0.00 50 1014.8
20260503220517 26 71 4.8 12.9 0.00 0.00 0.00 49 1014.7
20260503220043 25 113 6.4 11.3 0.00 0.00 0.00 50 1014.7
20260503215517 26 57 3.2 16.1 0.00 0.00 0.00 50 1014.8
20260503215016 26 82 6.4 16.1 0.00 0.00 0.00 49 1014.7
20260503214541 26 74 8.0 16.1 0.00 0.00 0.00 49 1014.7
20260503214016 26 65 8.0 17.7 0.00 0.00 0.00 50 1014.7
20260503213519 26 49 9.7 17.7 0.00 0.00 0.00 48 1014.7
20260503213040 26 35 4.8 14.5 0.00 0.00 0.00 49 1014.6
20260503212517 26 29 6.4 17.7 0.00 0.00 0.00 49 1014.6
20260503212017 26 88 9.7 17.7 0.00 0.00 0.00 50 1014.5
20260503211536 26 101 3.2 16.1 0.00 0.00 0.00 48 1014.6
20260503211016 26 63 4.8 14.5 0.00 0.00 0.00 48 1014.6
20260503210516 26 15 1.6 16.1 0.00 0.00 0.00 49 1014.7
20260503210036 26 30 4.8 16.1 0.00 0.00 0.00 49 1014.7
20260503205517 26 49 6.4 16.1 0.00 0.03 0.00 48 1014.7
20260503205017 27 94 8.0 16.1 0.00 0.03 0.00 48 1014.8
20260503204535 27 84 8.0 16.1 0.00 0.03 0.00 46 1014.8
20260503204016 27 284 0.0 11.3 0.00 0.03 0.00 49 1014.8
20260503203519 26 40 3.2 16.1 0.00 0.03 0.00 50 1014.9
20260503203044 26 65 6.4 17.7 0.00 0.03 0.00 47 1015.1
20260503202517 25 65 8.0 17.7 0.00 0.03 0.00 50 1015.0
20260503202019 26 70 9.7 24.1 0.00 0.03 0.00 48 1015.1
20260503201542 26 67 12.9 24.1 0.00 0.03 0.00 47 1015.2
20260503201019 27 108 3.2 14.5 0.00 0.03 0.00 48 1015.2
20260503200516 25 59 4.8 19.3 0.00 0.03 0.00 52 1015.2
20260503200034 25 61 6.4 19.3 0.00 0.03 0.00 52 1015.2
20260503195518 26 23 6.4 16.1 0.00 0.30 0.00 52 1015.3
20260503195017 26 62 3.2 14.5 0.00 0.30 0.00 52 1015.3
20260503194539 25 72 4.8 19.3 0.00 0.30 0.00 52 1015.5
20260503194016 26 59 11.3 19.3 0.00 0.30 0.00 50 1015.6
20260503193519 26 136 4.8 11.3 0.00 0.30 0.00 51 1015.7
20260503193038 26 95 3.2 12.9 0.00 0.30 0.00 49 1015.9
20260503192517 26 47 4.8 14.5 0.00 0.30 0.00 49 1016.0
20260503192016 26 85 6.4 22.5 0.00 0.30 0.00 51 1016.0
20260503191535 25 99 6.4 22.5 0.00 0.30 0.00 50 1016.1
20260503191017 26 69 4.8 16.1 0.00 0.30 0.00 49 1016.3
20260503190517 26 97 8.0 16.1 0.00 0.30 0.00 53 1016.3
20260503190035 25 28 6.4 14.5 0.00 0.30 0.00 53 1016.4
20260503185516 26 59 6.4 14.5 0.00 0.64 0.00 51 1016.4
20260503185016 26 115 3.2 14.5 0.00 0.64 0.00 49 1016.5
20260503184548 26 76 6.4 14.5 0.00 0.64 0.00 50 1016.6
20260503184017 26 346 4.8 14.5 0.00 0.64 0.00 52 1016.6
20260503183517 25 51 4.8 19.3 0.00 0.64 0.00 56 1016.7
20260503183044 25 101 4.8 19.3 0.00 0.64 0.00 53 1016.7
20260503182516 25 75 6.4 19.3 0.00 0.64 0.00 53 1017.0
20260503182016 25 65 8.0 17.7 0.00 0.64 0.00 54 1017.0
20260503181537 25 90 6.4 20.9 0.00 0.64 0.00 57 1016.9
20260503181017 24 71 4.8 20.9 0.00 0.64 0.00 57 1016.9
20260503180516 26 78 8.0 20.9 0.00 0.64 0.00 55 1017.0
20260503180038 24 87 6.4 19.3 0.00 0.64 0.00 61 1017.1
20260503175515 23 74 4.8 19.3 0.00 0.64 0.00 60 1017.1
20260503175016 25 26 9.7 19.3 0.00 0.64 0.00 56 1017.1
20260503174535 25 272 4.8 17.7 0.00 0.64 0.00 58 1017.2
20260503174023 23 0 3.2 19.3 0.00 0.64 0.00 62 1017.3
20260503173521 24 49 4.8 19.3 0.00 0.64 0.00 60 1017.2
20260503173037 24 84 4.8 20.9 0.00 0.64 0.00 60 1017.3
20260503172519 25 48 6.4 20.9 0.00 0.64 0.00 61 1017.3
20260503172016 23 70 6.4 20.9 0.00 0.64 0.00 61 1017.5
20260503171603 23 82 9.7 19.3 0.00 0.64 0.00 59 1017.4
20260503171016 25 129 8.0 20.9 0.00 0.64 0.00 58 1017.4
20260503170516 24 25 6.4 20.9 0.00 0.64 0.00 61 1017.5
20260503150516 21 42 9.7 20.9 0.00 0.64 0.00 71 1018.0
20260503131019 18 62 4.8 17.7 0.00 0.64 0.00 82 1017.0
20260503130515 18 46 4.8 16.1 0.00 0.64 0.00 83 1016.8
20260503110519 15 0 0.0 3.2 0.00 0.64 0.00 93 1016.0
20260503081539 16 352 0.0 3.2 0.00 0.64 0.00 91 1014.6
20260503081018 16 0 0.0 4.8 0.00 0.64 0.00 91 1014.7
20260503080517 16 192 1.6 4.8 0.00 0.64 0.00 91 1014.6
20260503072518 16 0 0.0 4.8 0.00 0.64 0.00 91 1014.4
20260503072018 16 0 0.0 8.0 0.00 0.64 0.00 91 1014.5
20260503071600 16 144 0.0 9.7 0.00 0.64 0.00 91 1014.5
20260503071018 16 223 1.6 9.7 0.00 0.64 0.00 91 1014.4
20260503070517 16 90 0.0 6.4 0.00 0.64 0.00 91 1014.3
20260503055017 17 32 1.6 12.9 0.00 0.64 0.00 91 1014.6
20260503054542 17 0 0.0 6.4 0.00 0.64 0.00 91 1014.8
20260503054017 17 0 0.0 6.4 0.00 0.64 0.00 91 1014.7
20260503053518 17 43 1.6 6.4 0.00 0.64 0.00 91 1014.6
20260503053038 17 34 0.0 9.7 0.00 0.64 0.00 91 1014.6
20260503052517 17 19 0.0 9.7 0.00 0.64 0.00 92 1014.5
20260503052017 17 25 3.2 9.7 0.00 0.64 0.00 92 1014.5
20260503051536 17 0 1.6 8.0 0.00 0.64 0.00 92 1014.6
20260503051016 17 62 1.6 4.8 0.00 0.64 0.00 92 1014.4
20260503050518 17 0 0.0 1.6 0.00 0.64 0.00 92 1014.7
20260503050041 17 0 0.0 3.2 0.00 0.64 0.00 92 1014.6
20260503045516 17 205 0.0 3.2 0.00 0.64 0.00 92 1014.6
20260503045016 17 0 0.0 3.2 0.00 0.64 0.00 92 1014.4
20260503044545 17 0 0.0 3.2 0.00 0.64 0.00 92 1014.5
20260503044016 17 0 0.0 9.7 0.00 0.64 0.00 92 1014.5
20260503043516 17 0 0.0 9.7 0.00 0.64 0.00 92 1014.3
20260503043044 17 0 0.0 3.2 0.00 0.64 0.00 92 1014.3
20260503042516 17 0 0.0 4.8 0.00 0.64 0.00 92 1014.3
20260503042020 17 278 0.0 4.8 0.00 0.64 0.00 92 1014.2
20260503041534 17 134 0.0 4.8 0.00 0.64 0.00 93 1013.9
20260503041016 17 217 0.0 4.8 0.00 0.64 0.00 93 1013.9
20260503040516 17 200 0.0 4.8 0.00 0.64 0.00 93 1013.7
20260503040040 17 0 0.0 8.0 0.00 0.64 0.00 93 1013.7
20260503035516 17 0 0.0 8.0 0.00 0.64 0.64 93 1013.7
20260503035016 18 0 1.6 8.0 0.00 0.64 0.64 93 1013.4
20260503034536 18 333 1.6 8.0 0.00 0.64 0.64 93 1013.4
20260503034015 18 0 1.6 12.9 0.00 0.64 0.64 93 1013.1
20260503033519 18 327 3.2 12.9 0.00 0.64 0.64 93 1013.4
20260503033032 19 126 1.6 6.4 0.00 0.64 0.64 93 1013.1
20260503032516 19 0 1.6 8.0 0.00 0.64 0.64 92 1013.1
20260503032021 19 0 1.6 14.5 0.00 0.64 0.64 92 1013.0
20260503031534 19 226 3.2 14.5 0.00 0.64 0.64 93 1013.0
20260503031020 20 0 1.6 9.7 0.00 0.64 0.64 93 1012.6
20260503030520 20 329 1.6 9.7 0.00 0.64 0.64 93 1012.5
20260503030032 20 0 0.0 3.2 0.00 0.64 0.64 93 1012.6
20260503025519 20 0 0.0 8.0 0.00 0.64 0.64 94 1012.4
20260503025016 20 0 1.6 9.7 0.00 0.64 0.64 94 1012.4
20260503024534 20 0 1.6 9.7 0.00 0.64 0.64 94 1012.3
20260503024017 20 244 1.6 11.3 0.00 0.64 0.64 94 1012.3
20260503023516 20 286 1.6 22.5 0.00 0.64 0.64 95 1012.3
20260503023041 20 315 4.8 22.5 0.00 0.64 0.64 95 1012.4
20260503022518 21 252 6.4 17.7 0.00 0.64 0.64 95 1012.3
20260503022020 20 245 1.6 8.0 0.00 0.64 0.64 95 1012.2
20260503021537 20 244 3.2 8.0 0.00 0.64 0.64 95 1012.2
20260503021018 20 248 3.2 6.4 0.00 0.64 0.64 95 1012.0
20260503020517 20 246 1.6 6.4 0.00 0.64 0.64 95 1012.0
20260503020038 20 253 0.0 1.6 0.00 0.64 0.64 95 1011.8
20260503015519 20 0 0.0 0.0 0.00 0.64 0.64 95 1011.5
20260503015016 20 0 0.0 1.6 0.00 0.64 0.64 95 1011.5
20260503014533 20 0 0.0 1.6 0.00 0.64 0.64 95 1011.4
20260503014017 20 0 0.0 3.2 0.00 0.64 0.64 95 1011.2
20260503013517 20 0 0.0 3.2 0.00 0.64 0.64 95 1011.2
20260503013034 20 253 0.0 3.2 0.00 0.64 0.64 95 1011.1
20260503012517 20 0 0.0 3.2 0.00 0.64 0.64 94 1011.0
20260503012017 20 0 0.0 3.2 0.00 0.64 0.64 94 1010.9
20260503011548 20 0 0.0 1.6 0.00 0.64 0.64 94 1010.9
20260503011016 20 0 0.0 1.6 0.00 0.64 0.64 94 1010.9
20260503010519 20 253 0.0 1.6 0.00 0.64 0.64 94 1010.9
20260503010042 20 0 0.0 3.2 0.00 0.64 0.64 94 1010.7
20260503005516 20 0 0.0 3.2 0.00 0.64 0.64 94 1010.7
20260503005017 20 253 0.0 3.2 0.00 0.64 0.64 94 1010.8
20260503004600 20 0 0.0 3.2 0.00 0.64 0.64 94 1010.4